sat.trackr.live / text

‹ back to catalog

LUNA-1

NORAD 66777 · 2025-276DR

PAYLOAD ACTIVE UNKNOWN

§ Identity

Operator
Country
TURK
Launch date
2025-11-28
Launch site
AFWTR
Launch vehicle
Mass (kg)
RCS (m²)

External: N2YO · Heavens-Above · Gunter

§ Orbital elements

Epoch: 2026-09-20T22:45:27.277632Z

Period
94.47 min
Inclination
97.4178°
Eccentricity
0.0000875
Mean motion
15.24239822 rev/d
Perigee alt
492.5 km
Apogee alt
493.7 km
Semi-major
6,871.2 km
B*
2.6661e-4
RAAN
337.2512°
Arg perigee
194.6043°
Mean anomaly
165.5169°
Rev number
4,504

§ Raw data

LUNA-11 66777U 25276DR  26263.94823238  .00006433  00000+0  26661-3 0  99922 66777  97.4178 337.2512 0000875 194.6043 165.5169 15.24239822 45045

JSON: /api/v1/satellites/66777 · /tle

For live sub-satellite position, see the globe view (requires WebGL).

§ Visibility from observer

Set your observer location to see the next 7 days of passes ≥ 10°. The values pass through the URL so the page stays shareable.

No JS? Fill the form by hand. The geolocation button needs JavaScript.